This is the latest recevied weather packets stored in our database for station/object VE3MJM-WX. If no packets are shown the sender has not sent any weather packets the latest 10 day(s).
| Time | Temp. | Humidity | Pressure | Rain* | Wind** | Luminosity | Snow |
|---|---|---|---|---|---|---|---|
| 1777680574 | 3.33° C | 58% | 1009 hPa | 0 mm | - | - | - |
| 1777679671 | 3.89° C | 60% | 1008.9 hPa | 0 mm | - | - | - |
| 1777678768 | 4.44° C | 59% | 1008.7 hPa | 0 mm | - | - | - |
| 1777677866 | 5° C | 57% | 1008.5 hPa | 0 mm | - | - | - |
| 1777676963 | 5.56° C | 51% | 1008.4 hPa | 0 mm | - | - | - |
| 1777676061 | 5.56° C | 51% | 1008.1 hPa | 0 mm | - | - | - |
| 1777675158 | 6.11° C | 52% | 1008 hPa | 0 mm | - | - | - |
| 1777674257 | 6.67° C | 49% | 1007.9 hPa | 0 mm | - | - | - |
| 1777673324 | 6.11° C | 50% | 1007.8 hPa | 0 mm | - | - | - |
| 1777672421 | 6.11° C | 50% | 1007.7 hPa | 0 mm | - | - | - |
| 1777671518 | 6.11° C | 52% | 1007.7 hPa | 0 mm | - | - | - |
| 1777670615 | 7.78° C | 50% | 1007.2 hPa | 0 mm | - | - | - |
| 1777669713 | 7.78° C | 50% | 1007.2 hPa | 0 mm | - | - | - |
| 1777668810 | 8.33° C | 51% | 1006.8 hPa | 0 mm | - | - | - |
| 1777667908 | 8.33° C | 50% | 1006.9 hPa | 0 mm | - | - | - |
| 1777667005 | 8.33° C | 48% | 1006.6 hPa | 0 mm | - | - | - |
| 1777666103 | 7.78° C | 50% | 1006.8 hPa | 0 mm | - | - | - |
| 1777665200 | 7.78° C | 52% | 1006.8 hPa | 0 mm | - | - | - |
| 1777664298 | 7.78° C | 51% | 1006.5 hPa | 0 mm | - | - | - |
| 1777663395 | 8.33° C | 51% | 1006.6 hPa | 0 mm | - | - | - |
| 1777662493 | 7.22° C | 50% | 1006.5 hPa | 0 mm | - | - | - |
| 1777661590 | 8.33° C | 47% | 1006.5 hPa | 0 mm | - | - | - |
| 1777660687 | 8.33° C | 51% | 1006.5 hPa | 0 mm | - | - | - |
| 1777659785 | 8.33° C | 53% | 1006.6 hPa | 0 mm | - | - | - |
| 1777658882 | 7.78° C | 56% | 1006.5 hPa | 0 mm | - | - | - |
* Rain latest hour (hover to see other rain measurements)
** Current wind speed in m/s (hover to see current wind gust speed)